Location: Berlín
(5.8589°N, 73.8628°W)
Time: 06:43:05
(UTC+00:00)

Daily predictions for brighter satellites

Satellite Brightness Start Highest point End
(mag) Time Altitude Azimuth Time Altitude Azimuth Time Altitude Azimuth
BlueWalker 3 3.5 22:51:44 10° WSW 22:54:57 30° NW 22:58:10 10° N
Cosmos 2058 4.5 22:55:50 10° NE 22:58:00 14° E 23:00:11 10° ESE
Sea Lan Dem Rocket 4.4 22:53:32 10° WSW 22:58:34 59° SSE 23:30:41 10° E
Ariane H10-3 1.7 22:57:04 10° W 22:59:25 84° S 23:06:03 10° E
AQUARIUS 4.2 22:56:19 10° SSE 23:00:39 57° ENE 23:04:57 10° N
Landsat 7 3.8 22:59:36 10° SSE 23:04:15 89° E 23:08:54 10° N
Cosmos 676 Rocket 4.1 23:00:19 10° SSW 23:05:38 86° WNW 23:10:55 10° N
NOSS 3-4 (A) 4.3 23:04:58 10° NNW 23:13:11 87° WSW 23:22:06 10° SSE
NOSS 3-4 (C) 4.3 23:05:05 10° NNW 23:13:16 88° WSW 23:22:09 10° SSE
SPOT 1/Viking Rocket 4.0 23:08:36 10° SE 23:13:19 37° ENE 23:18:02 10° N
ARIANE 5 R/B 1.4 23:10:40 10° W 23:14:32 43° S 23:16:17 12° ESE
Cosmos 1455 Rocket 3.9 23:15:41 10° SSE 23:19:22 27° E 23:22:46 11° NE
Cosmos 1464 Rocket 4.4 23:13:43 10° S 23:20:03 70° W 23:26:20 10° N
SL-4 R/B 3.4 23:18:57 10° NNE 23:21:08 16° NE 23:21:08 16° NE
Cosmos 371 Rocket 4.4 23:16:48 10° SSW 23:21:22 46° WNW 23:25:56 10° N
CZ-4 R/B 4.2 23:23:55 10° SSE 23:27:53 72° ENE 23:31:49 10° N
Cosmos 2297 3.9 23:23:38 10° S 23:29:10 51° ESE 23:34:18 12° NNE
Sich 1 Rocket 3.9 23:25:37 10° S 23:30:03 70° W 23:34:32 10° N
MOS 1 Rocket 3.2 23:26:23 10° S 23:30:39 75° W 23:34:52 10° NNW
Cosmos 2034 Rocket 4.0 23:25:56 10° S 23:32:05 89° W 23:38:15 10° N
Spot 4 Rocket 4.2 23:27:21 10° SSE 23:32:14 48° ENE 23:37:07 10° N
USA 215 4.1 23:27:19 10° ESE 23:32:39 27° NE 23:37:58 10° N
Cosmos 2369 Rocket 2.2 23:27:41 10° S 23:33:09 58° ESE 23:38:09 12° NNE
Cosmos 968 Rocket 3.3 23:30:07 10° S 23:35:12 81° ESE 23:40:18 10° NNE
Okean 1 Rocket 3.8 23:32:52 10° SSW 23:37:13 55° W 23:41:32 10° N
ARIANE 5 DEB (SYLDA) 3.8 23:36:06 10° WSW 23:38:38 49° S 23:41:27 21° ESE
Cosmos 1741 Rocket 3.9 23:36:54 10° S 23:42:03 64° ESE 23:46:11 16° NNE
ATLAS 5 CENTAUR R/B 2.7 23:40:53 10° N 23:46:25 44° ENE 23:52:50 10° SE
Yuri Rocket 3.8 23:43:10 10° SW 23:47:59 42° SSE 23:49:24 32° ESE
Cosmos 332 Rocket 3.7 23:45:37 10° S 23:50:25 72° ESE 23:53:17 24° NNE
Cosmos 1602 3.5 23:48:32 10° NNW 23:51:33 62° W 23:54:34 10° S
ATLAS 5 CENTAUR R/B 3.3 23:51:53 10° S 23:53:56 14° SE 23:54:10 14° SE
